Location: Congrier
(47.8099°N, 1.1170°W)
Time: 00:39:40
(UTC+00:00)

Cosmos 1408 - Pass Details

Date: 28 January 2023
Orbit: 431 x 463 km, 82.6° (Epoch: 01 April)

Event Time Altitude Azimuth Distance (km) Brightness Sun altitude
Rises 19:31:56 0° 215° (SW) 2,397 6.5 -25.7°
Reaches altitude 10° 19:34:12 10° 229° (SW) 1,538 5.7 -26.1°
Maximum altitude 19:37:01 25° 287° (WNW) 929 4.6 -26.6°
Enters shadow 19:37:46 23° 309° (NW) 985 4.6 -26.7°
